Location: Sentaraille
(43.0278°N, 1.1059°E)
Time: 12:08:25
(UTC+00:00)

Daily predictions for brighter satellites

Satellite Brightness Start Highest point End
(mag) Time Altitude Azimuth Time Altitude Azimuth Time Altitude Azimuth
NOSS 3-1 (A) 4.5 19:44:33 10° NW 19:52:06 70° WSW 20:01:07 10° SSE
SPOT 1/Viking Rocket 4.4 19:48:26 10° S 19:53:27 52° W 19:58:29 10° NNW
Cosmos 2369 Rocket 2.5 19:51:11 10° NNW 19:56:40 53° ENE 20:02:08 10° SE
Cosmos 1656 Rocket 3.7 19:51:36 10° NNW 19:57:04 69° ENE 20:02:34 10° SSE
Cosmos 44 3.4 19:54:29 10° NW 19:59:16 70° WSW 20:03:43 10° SSE
Cosmos 2034 Rocket 4.1 19:58:55 10° N 20:05:12 86° E 20:11:30 10° S
Cosmos 2084 3.4 20:02:26 10° NW 20:06:10 67° SW 20:09:56 10° SSE
USA 229 DEB 4.2 20:00:50 10° NNW 20:08:18 68° NE 20:16:16 10° SE
USA 229 4.2 20:00:56 10° NNW 20:08:24 68° NE 20:16:22 10° SE
Cosmos 1371 Rocket 4.2 20:03:21 10° NNW 20:08:43 83° WSW 20:14:04 10° SSE
Cosmos 1420 Rocket 4.5 20:08:28 10° NNW 20:13:43 62° WSW 20:18:55 10° S
Cosmos 1378 4.2 20:11:46 10° SSW 20:14:52 41° WNW 20:18:01 10° N
SeaSat 1 3.5 20:11:23 10° S 20:16:00 41° WSW 20:20:39 10° NW
PSLV R/B 4.4 20:15:00 10° S 20:18:38 52° W 20:22:15 10° NNW
Cosmos 1726 3.3 20:17:18 10° NNE 20:19:44 21° ENE 20:21:30 14° ESE
USA 306 4.0 20:17:26 10° NW 20:20:52 32° NNE 20:24:24 10° E
USA 59 Rocket 2.4 20:20:06 10° NNE 20:21:53 13° NE 20:23:51 10° ENE
Tsikada Rocket 4.0 20:16:04 10° S 20:22:15 84° E 20:28:33 10° N
Cosmos 1943 3.2 20:19:18 10° S 20:24:52 61° ESE 20:30:27 10° NNE
IRS-1C Rocket 4.4 20:21:18 11° SSE 20:26:14 55° ENE 20:31:22 10° N
Cosmos 1842 Rocket 3.9 20:22:28 10° SSE 20:26:43 46° E 20:30:56 10° NNE
USA 276 2.1 20:26:13 10° WNW 20:28:15 37° SW 20:29:24 20° SSE
Spot 2 Rocket 4.5 20:25:05 13° SE 20:28:54 31° ENE 20:33:19 10° N
Resurs 01 Rocket 3.0 20:25:11 10° SSW 20:29:17 37° W 20:33:24 10° NNW
Okean 3 Rocket 3.9 20:25:30 10° N 20:29:45 47° ENE 20:33:10 15° SSE
IRS-1A Rocket 4.5 20:24:47 12° SSE 20:29:57 56° ENE 20:35:21 10° N
ISS -3.4 20:28:02 10° NW 20:31:23 59° NNE 20:33:56 16° ESE
ARGOS Delta rocket 4.4 20:27:17 13° SE 20:31:24 43° ENE 20:35:53 10° N
Okean O Rocket 3.1 20:35:29 10° SSW 20:39:31 34° W 20:43:35 10° NNW
SPOT 3 Rocket 4.4 20:36:08 15° SE 20:39:43 35° ENE 20:44:21 10° N
CZ-4 R/B 4.3 20:39:09 10° WSW 20:40:16 11° W 20:41:23 10° WNW
Sich 1 4.5 20:39:15 10° NNE 20:42:48 23° ENE 20:44:55 17° ESE
Cosmos 2221 3.6 20:39:05 10° SSW 20:43:14 46° WNW 20:47:24 10° N
Meteor 1-27 Rocket 4.4 20:40:55 16° SE 20:44:35 33° E 20:49:29 10° NNE
USA 281 4.2 20:43:30 13° ESE 20:48:34 35° NE 20:54:23 10° N
ATLAS 3B R/B 4.2 20:42:59 10° NW 20:49:55 35° WSW 20:56:41 10° S
Ariane Rocket 3.4 20:48:21 19° SE 20:51:45 48° ENE 20:56:37 10° N
MetOp-B 4.2 20:46:53 13° S 20:51:46 81° WSW 20:57:10 10° NNW
Cosmos 1766 Rocket 4.3 20:48:27 10° NNW 20:52:48 52° W 20:57:07 10° S
GEOS 3 Rocket 4.2 20:55:35 10° NE 21:00:13 33° ESE 21:03:30 17° S
Terra 1.8 20:59:36 22° SSE 21:02:38 71° ENE 21:07:20 10° N
Cosmos 1340 Rocket 3.5 21:03:13 27° SE 21:04:31 35° E 21:08:09 10° NNE
MOS 1 Rocket 3.8 21:02:03 23° SE 21:05:06 53° ENE 21:10:18 10° N
Cosmos 1452 Rocket 3.5 21:02:51 10° NNW 21:08:07 86° WSW 21:11:27 23° SSE
Cosmos 1743 Rocket 4.2 21:05:00 10° N 21:09:10 40° ENE 21:10:55 27° SE
Lacrosse 5 4.4 21:09:15 10° WSW 21:10:00 10° WSW 21:10:46 10° SW
Helios 1B 4.4 21:10:32 10° NNE 21:14:51 76° ESE 21:17:40 21° S
ERS-1 Rocket 3.1 21:12:27 21° S 21:15:53 74° WSW 21:20:57 10° NNW
Cosmos 1408 Rocket 3.5 21:14:29 10° N 21:18:58 88° W 21:21:17 28° S
Meteor 2-10 4.1 21:16:01 10° N 21:21:30 68° ENE 21:24:13 29° SSE
USA 245 2.9 21:22:29 38° WSW 21:22:34 38° W 21:24:45 10° NNW
Cosmos 1626 4.2 21:24:36 12° ENE 21:24:36 12° ENE 21:25:11 10° ENE
Nadezhda 4 Rocket 4.0 21:21:16 23° SSE 21:25:12 64° E 21:31:23 10° NNE
Cosmos 2279 Rocket 4.2 21:20:05 10° NNW 21:26:14 66° W 21:30:55 18° S
Spot 1 4.0 21:22:27 10° NNE 21:26:31 60° ESE 21:28:04 35° SSE
Cosmos 614 Rocket 4.3 21:25:40 31° SSE 21:27:42 46° ESE 21:32:41 10° NNE
SPOT 5 4.2 21:26:54 12° SSW 21:30:31 30° W 21:34:27 10° NW
Meteor 1-19 Rocket 4.2 21:28:38 19° S 21:32:57 86° E 21:38:44 10° N
Cosmos 1603 4.2 21:29:16 10° SW 21:34:50 60° WNW 21:40:31 10° NNE
Cosmos 1833 Rocket 4.2 21:35:26 18° E 21:35:26 18° E 21:38:50 10° ENE
Okean 1 3.7 21:33:59 23° SSW 21:36:12 57° W 21:40:02 10° N
Cosmos 1151 Rocket 3.0 21:37:10 41° SSE 21:38:30 66° E 21:42:49 10° NNE
Cosmos 2369 Rocket 4.0 21:36:01 10° NW 21:40:15 23° W 21:44:28 10° SSW
Cosmos 1975 3.6 21:39:06 10° N 21:42:45 35° ENE 21:43:09 34° E
Meteor 1-11 Rocket 4.2 21:38:31 10° NNW 21:44:07 59° W 21:47:34 24° SSW
Cosmos 1328 Rocket 4.4 21:45:12 31° E 21:45:22 31° E 21:49:12 10° NNE
Meteor 2-17 Rocket 4.4 21:41:44 24° S 21:45:34 90° W 21:51:40 10° N
FALCON 9 R/B 4.0 21:40:55 10° WSW 21:46:57 43° S 21:58:41 20° SE
Cosmos 1302 Rocket 3.9 21:45:38 10° NNW 21:50:51 87° WSW 21:52:42 41° SSE
Cosmos 1536 4.2 21:47:57 10° NNW 21:51:28 32° W 21:53:08 22° SW
Cosmos 1992 Rocket 4.5 21:46:25 10° N 21:51:28 48° ENE 21:53:10 35° ESE
Cosmos 1726 4.2 21:50:44 10° NW 21:52:45 16° W 21:53:59 13° WSW
Cosmos 1500 Rocket 4.2 21:49:37 10° NNW 21:53:47 49° W 21:55:22 32° SSW
USA 306 2.9 21:50:56 10° WNW 21:54:41 49° SW 21:54:47 49° SW
Cosmos 1656 4.2 21:50:50 10° NNW 21:56:05 45° ENE 21:58:06 32° ESE
Cosmos 1805 2.9 21:57:41 10° N 22:01:25 82° E 22:01:33 79° ESE
Lacrosse 4 Rocket 2.2 21:57:50 10° NNW 22:01:43 40° NE 22:02:26 36° E
Cosmos 1733 3.8 21:59:26 10° NNW 22:02:46 42° W 22:03:12 40° WSW
H-2A R/B 4.0 22:02:15 22° E 22:02:53 23° ENE 22:06:14 10° NNE
Cosmos 1805 Rocket 4.3 22:00:08 10° NNW 22:04:20 46° W 22:05:48 33° SW
Cosmos 2026 Rocket 4.0 22:02:10 38° SSE 22:04:40 69° E 22:10:53 10° NNE
ISS -1.5 22:05:21 10° W 22:06:48 17° WSW 22:06:48 17° WSW
IRIDIUM 104 4.3 22:02:45 10° N 22:08:00 74° E 22:09:23 49° SSE
NOSS 3-3 (A) 3.6 22:08:04 39° S 22:10:06 68° ESE 22:16:11 10° NE
Cosmos 1627 Rocket 4.5 22:07:49 39° S 22:10:21 75° E 22:16:39 10° N
Cosmos 1633 Rocket 3.2 22:06:42 10° N 22:11:03 55° E 22:11:28 52° ESE
USA 59 Rocket 0.2 22:07:43 10° NW 22:11:52 84° NE 22:13:06 52° SE
Orbus 7S? 4.5 22:05:48 10° SSW 22:13:47 32° ENE 22:15:36 10° ENE
Landsat 5 4.3 22:09:29 10° N 22:13:03 40° WNW 22:14:26 29° WSW
Cosmos 1666 Rocket 3.4 22:08:50 10° N 22:13:09 71° E 22:13:32 66° ESE
NOSS 2-1 (E) 3.7 22:09:48 10° NW 22:13:57 87° NE 22:15:08 54° SE
Cosmos 1340 3.6 22:12:14 10° NNW 22:15:19 33° W 22:15:25 33° W
Chandra Rocket (1) 4.4 21:59:42 10° WSW 22:17:00 34° SSW 22:18:40 32° S
IRIDIUM 114 4.2 22:11:53 10° N 22:17:09 90° ESE 22:18:30 51° S
Cosmos 220 Rocket 4.3 22:18:08 41° SW 22:19:27 62° WNW 22:23:45 10° NNE
Sich 1 4.5 22:16:23 10° NNW 22:20:13 30° W 22:21:38 25° SW
CZ-2C R/B 3.5 22:18:52 10° NNE 22:23:21 71° ESE 22:23:38 69° SE
Cosmos 1818 3.5 22:21:17 33° SW 22:23:51 88° WNW 22:29:22 10° NNE
IRIDIUM 103 4.3 22:21:04 10° N 22:26:17 75° W 22:27:37 50° SSW
NOSS 2-1 (D) 3.8 22:22:27 10° NW 22:26:35 70° SW 22:27:17 60° S
ALOS 2 4.2 22:26:21 22° ENE 22:26:57 23° ENE 22:30:22 10° NNE
USA 281 3.6 22:30:22 35° SSW 22:32:49 51° WSW 22:39:13 10° NNW
Cosmos 1697 Rocket 3.6 22:28:21 10° N 22:33:36 38° ENE 22:35:28 30° E
Meteor 2-4 Rocket 4.1 22:33:18 34° SSW 22:35:53 64° WNW 22:41:48 10° N
Cosmos 1674 4.0 22:37:26 29° NE 22:37:26 29° NE 22:39:31 10° NNE
Cosmos 1607 4.2 22:37:14 47° SE 22:38:05 51° ESE 22:44:20 10° NE
Cosmos 1553 Rocket 4.0 22:32:25 10° N 22:38:26 63° E 22:39:56 48° SE
Terra 4.3 22:38:41 10° WSW 22:40:42 13° W 22:42:42 10° WNW
NOSS 3-3 (C) 3.8 22:38:08 32° SW 22:40:47 79° NW 22:47:05 10° NE
Cosmos 1980 Rocket 4.0 22:37:09 10° N 22:41:42 24° NE 22:44:38 16° E
Cosmos 1066 Rocket 4.2 22:41:55 54° S 22:43:21 86° E 22:49:15 10° N
Cosmos 2285 Rocket 4.4 22:44:29 42° ESE 22:45:13 44° ESE 22:51:09 10° NNE
Cosmos 407 Rocket 4.4 22:49:43 35° E 22:49:43 35° E 22:54:10 10° NE
ARIANE 5 R/B 2.6 22:50:12 69° WSW 22:50:12 69° WSW 22:54:31 10° NNW
Lacrosse 5 rocket 4.2 22:49:25 10° NNW 22:51:50 15° NNE 22:54:12 10° NE
Cosmos 1269 Rocket 4.5 22:54:33 38° SW 22:56:18 57° WNW 23:01:30 10° NNE
Cosmos 1626 3.7 22:57:25 26° WNW 22:57:25 26° WNW 22:59:42 10° NNW
Cosmos 2251 Rocket 4.1 23:01:47 40° E 23:01:47 40° E 23:06:26 10° NE
CZ-3 Stage 3 4.0 22:39:15 10° WSW 23:02:14 39° S 23:03:03 38° S
Cosmos 1707 3.7 23:09:21 41° NNE 23:09:21 41° NNE 23:11:52 10° NNE
Cosmos 2266 Rocket 4.0 23:12:28 56° SE 23:13:32 66° E 23:19:43 10° NNE
Spot 4 3.7 23:13:59 84° SW 23:14:03 85° WSW 23:18:50 10° NNW
Cosmos 1842 4.0 23:15:46 47° NNW 23:15:46 47° NNW 23:18:34 10° N
Cosmos 1655 Rocket 4.4 23:15:56 44° ESE 23:17:02 49° E 23:23:09 10° NNE
Cosmos 1833 Rocket 2.9 23:17:04 48° SW 23:18:31 67° WNW 23:24:07 10° NNE
Cosmos 2082 Rocket 2.9 23:23:06 39° ESE 23:23:06 39° ESE 23:28:17 10° NE
Cosmos 2360 4.3 23:18:56 10° NNW 23:24:34 62° WSW 23:25:03 59° SW
ATLAS CENTAUR R/B 4.4 23:11:57 10° NW 23:26:11 88° SW 23:31:47 34° SE
Cosmos 1515 Rocket 4.4 23:28:43 41° WNW 23:28:45 41° WNW 23:32:51 10° N
CZ-2C R/B 4.4 23:27:24 30° ESE 23:29:03 38° ENE 23:42:26 10° N
Cosmos 2228 Rocket 4.2 23:31:44 34° ENE 23:31:44 34° ENE 23:35:19 10° NNE
Meteor 1-22 Rocket 4.2 23:28:00 10° N 23:33:18 61° ENE 23:33:54 57° ESE
SL-08 ROCKET BODY 4.3 23:33:08 63° S 23:34:14 85° E 23:40:28 10° N
Meteor 1-15 Rocket 4.2 23:31:56 10° N 23:37:34 68° ENE 23:38:16 61° ESE
H-2A R/B 3.8 23:38:15 31° WNW 23:38:15 31° WNW 23:41:28 10° NNW
H-2A R/B 2.7 23:34:40 10° NNE 23:38:23 49° ENE 23:38:23 49° ENE
Lacrosse 4 Rocket 3.6 23:36:46 10° WNW 23:38:21 17° W 23:38:21 17° W
Cosmos 1733 Rocket 4.2 23:36:07 10° N 23:39:58 33° ENE 23:39:58 33° ENE
Cosmos 1869 Rocket 3.7 23:38:38 10° N 23:42:30 68° NNW 23:42:30 68° NNW
Cosmos 1470 4.2 23:41:39 10° NNW 23:43:59 29° NW 23:43:59 29° NW
Cosmos 1400 Rocket 3.6 23:54:09 48° NE 23:54:09 48° NE 23:57:11 10° NNE
